Location: Demre
(36.2444°N, 29.9850°E)
Time: 05:44:26
(UTC+00:00)

Cosmos 2278 Rocket - Pass Details

Date: 11 March 2026
Orbit: 838 x 846 km, 71.0° (Epoch: 21 April)

Event Time Altitude Azimuth Distance (km) Brightness Sun altitude
Rises 16:44:12 0° 222° (SW) 3,381 6.0 -9.0°
Reaches altitude 10° 16:46:49 10° 230° (SW) 2,451 5.4 -9.5°
Maximum altitude 16:52:00 38° 298° (WNW) 1,274 3.8 -10.5°
Drops below altitude 10° 16:57:14 10° 5° (N) 2,468 4.6 -11.6°
Sets 16:59:53 0° 14° (NNE) 3,408 5.3 -12.1°
